Regional Weather Roundup
Issued by NWS

Home | Current Version | Previous Version | Graphics & Text | Print | Product List | Glossary On
Versions: 1 2 3 4 5 6 7 8 9 10 11 12 13 14 15 16 17 18 19 20 21 22 23 24 25 26 27 28
000
ASUS45 KCYS 220610
RWRWY

WYOMING REGIONAL WEATHER ROUNDUP
NATIONAL WEATHER SERVICE CHEYENNE WY
1100 PM MST SUN JAN 21 2018

NOTE:  "FAIR" INDICATES FEW OR NO CLOUDS BELOW 12,000 FEET
WITH NO SIGNIFICANT WEATHER AND/OR OBSTRUCTIONS TO VISIBILITY.

WYZ001-220700-
YELLOWSTONE NATIONAL PARK

CITY           SKY/WX    TMP DP  RH WIND       PRES   REMARKS
LK YELLOWSTONE   N/A      1  -2  87 CALM      30.15S
6HR MIN TEMP:  -7; 6HR MAX TEMP:   4;

W YELLOWSTONE  NOT AVBL

$$
WYZ002>013-054>058-071-098>099-220700-
NORTHERN WYOMING

CITY           SKY/WX    TMP DP  RH WIND       PRES   REMARKS
JACKSON        FAIR       1  -3  83 N9        30.19R WCI -14
CODY           FAIR      16  13  88 CALM      30.02S
GREYBULL       FAIR      16  14  92 SE3       30.08S
6HR MIN TEMP:  15; 6HR MAX TEMP:  29;

WORLAND        FAIR      10   7  87 S5        30.07S WCI   2
6HR MIN TEMP:   4; 6HR MAX TEMP:  20;

SHERIDAN       FAIR      13   6  74 CALM      30.01S
6HR MIN TEMP:  12; 6HR MAX TEMP:  25;

BUFFALO        FAIR      21   5  50 W8        30.00S WCI  11
6HR MIN TEMP:  19; 6HR MAX TEMP:  28;

GILLETTE       FAIR      20  14  77 SW12      30.00S WCI   8
6HR MIN TEMP:  16; 6HR MAX TEMP:  22;

HULETT         FAIR      19  18  93 MISG      30.01S
NEWCASTLE      FAIR      16  12  86 NW6       30.02R WCI   7

$$
WYZ014>020-022>026-101>103-220700-
CENTRAL WYOMING

CITY           SKY/WX    TMP DP  RH WIND       PRES   REMARKS
BIG PINEY      FAIR      11   4  73 VRB3      30.12R
6HR MIN TEMP:   7; 6HR MAX TEMP:  24;

PINEDALE       FAIR       5   3  92 N9        30.10F WCI  -9
DUBOIS         FAIR      19   1  45 W24       30.04S WCI   2
LANDER         FAIR      12   5  73 SE3       30.03F
6HR MIN TEMP:  11; 6HR MAX TEMP:  21;

RIVERTON       FAIR       8   3  80 SW5       30.04F WCI   0
6HR MIN TEMP:   7; 6HR MAX TEMP:  20;

CASPER         FAIR       9   6  88 W10       30.04R WCI  -5
6HR MIN TEMP:   6; 6HR MAX TEMP:  14;

DOUGLAS        FAIR       6   4  91 W8        30.02S WCI  -7
6HR MIN TEMP:   6; 6HR MAX TEMP:  23;


$$
WYZ021-027>030-104>119-220700-
SOUTHERN WYOMING

CITY           SKY/WX    TMP DP  RH WIND       PRES   REMARKS
EVANSTON       FAIR       9   6  88 SW9       30.18S WCI  -4
6HR MIN TEMP:   7; 6HR MAX TEMP:  15; 6HR PCP: TRACE;

FORT BRIDGER   FAIR      13   9  82 SW16      30.19S WCI  -3
ROCK SPRINGS   FAIR      12   7  80 SW20      30.12R WCI  -6
6HR MIN TEMP:  11; 6HR MAX TEMP:  16;

DIXON            N/A      8   5  85 CALM      30.16R
RAWLINS        FAIR      12   8  84 W14       30.05R WCI  -3
6HR MIN TEMP:   6; 6HR MAX TEMP:  18;

SARATOGA       FAIR       3   1  92 E5        30.07R WCI  -6
LARAMIE        FAIR      10   2  69 N6        29.94S WCI   0
6HR MIN TEMP:   6; 6HR MAX TEMP:  15; 6HR PCP: TRACE;

CHEYENNE       MOCLDY    19  12  74 NW18G28   29.92R WCI   4
6HR MIN TEMP:  19; 6HR MAX TEMP:  20; 6HR PCP: TRACE;

TORRINGTON     CLOUDY    25  18  74 NW15G25   29.97R WCI  13
6HR MIN TEMP:  25; 6HR MAX TEMP:  26; 6HR PCP: TRACE;


$$




USA.gov is the U.S. government's official web portal to all federal, state and local government web resources and services.